TimeEDT,TemperatureF,Dew PointF,Humidity,Sea Level PressureIn,VisibilityMPH,Wind Direction,Wind SpeedMPH,Gust SpeedMPH,PrecipitationIn,Events,Conditions,WindDirDegrees,DateUTC
12:53 AM,70.0,66.9,90,30.00,-9999.0,East,3.5,-,N/A,,Unknown,90,2012-10-15 04:53:00
1:53 AM,69.1,66.9,93,30.00,-9999.0,Calm,Calm,-,N/A,,Unknown,0,2012-10-15 05:53:00
2:53 AM,68.0,66.9,96,29.98,-9999.0,Calm,Calm,-,N/A,,Unknown,0,2012-10-15 06:53:00
3:53 AM,68.0,66.0,93,29.96,-9999.0,Calm,Calm,-,N/A,,Unknown,0,2012-10-15 07:53:00
4:53 AM,66.9,66.0,97,29.96,-9999.0,Calm,Calm,-,N/A,,Unknown,0,2012-10-15 08:53:00
5:53 AM,68.0,66.0,93,29.96,-9999.0,Calm,Calm,-,N/A,,Unknown,0,2012-10-15 09:53:00
6:53 AM,66.9,66.0,97,29.96,-9999.0,Calm,Calm,-,N/A,,Unknown,0,2012-10-15 10:53:00
7:53 AM,66.0,64.9,96,29.96,-9999.0,Calm,Calm,-,N/A,,Unknown,0,2012-10-15 11:53:00
8:53 AM,69.1,66.9,93,29.98,-9999.0,Calm,Calm,-,N/A,,Unknown,0,2012-10-15 12:53:00
9:53 AM,71.1,69.1,93,30.00,-9999.0,WNW,4.6,-,N/A,,Unknown,300,2012-10-15 13:53:00
10:53 AM,73.9,70.0,87,29.98,-9999.0,Calm,Calm,-,N/A,,Unknown,0,2012-10-15 14:53:00
11:53 AM,75.9,70.0,82,29.96,-9999.0,Calm,Calm,-,N/A,,Unknown,0,2012-10-15 15:53:00
12:53 PM,80.1,69.1,69,29.94,-9999.0,Variable,4.6,-,N/A,,Unknown,0,2012-10-15 16:53:00
1:53 PM,82.9,64.9,54,29.90,-9999.0,WSW,10.4,-,N/A,,Unknown,250,2012-10-15 17:53:00
2:53 PM,84.0,64.9,53,29.87,-9999.0,WSW,6.9,-,N/A,,Unknown,240,2012-10-15 18:53:00
3:53 PM,84.9,66.0,53,29.85,-9999.0,WSW,6.9,-,N/A,,Unknown,250,2012-10-15 19:53:00
4:53 PM,84.0,66.0,55,29.83,-9999.0,SW,8.1,-,N/A,,Unknown,220,2012-10-15 20:53:00
5:53 PM,81.0,66.0,60,29.83,-9999.0,SW,9.2,-,N/A,,Unknown,230,2012-10-15 21:53:00
6:53 PM,75.0,66.9,76,29.84,-9999.0,SW,4.6,-,N/A,,Unknown,220,2012-10-15 22:53:00
7:53 PM,72.0,66.9,84,29.85,-9999.0,Calm,Calm,-,N/A,,Unknown,0,2012-10-15 23:53:00
8:53 PM,73.0,69.1,87,29.86,-9999.0,Calm,Calm,-,N/A,,Unknown,0,2012-10-16 00:53:00
9:53 PM,72.0,69.1,91,29.87,-9999.0,Calm,Calm,-,N/A,,Unknown,0,2012-10-16 01:53:00
10:53 PM,71.1,69.1,93,29.88,-9999.0,North,3.5,-,N/A,,Unknown,350,2012-10-16 02:53:00
11:53 PM,70.0,68.0,93,29.88,-9999.0,NNW,3.5,-,N/A,,Unknown,340,2012-10-16 03:53:00